FW2178 Weather Reports


time (UTC)temp
C
wind
direction
speed
KPH
gust
KPH
rain 1hr
cm
rain 24hr
cm
rain mn
cm
humidity
%
barometer
mb
20260507054828 11 149 0.0 0.0 0.00 0.00 0.00 94 1019.2
20260507054329 11 149 0.0 0.0 0.00 0.00 0.00 93 1019.1
20260507053830 11 149 0.0 0.0 0.00 0.00 0.00 93 1019.3
20260507053627 11 149 0.0 0.0 0.00 0.00 0.00 93 1019.4
20260507052829 11 149 0.0 0.0 0.00 0.00 0.00 93 1019.3
20260507052329 11 149 0.0 0.0 0.00 0.00 0.00 93 1019.3
20260507051829 11 149 0.0 0.0 0.00 0.00 0.00 93 1019.3
20260507051329 11 148 0.0 0.0 0.00 0.00 0.00 93 1019.1
20260507050830 11 148 0.0 0.0 0.00 0.00 0.00 93 1019.5
20260507050329 11 148 0.0 0.0 0.00 0.00 0.00 93 1019.3
20260507045829 11 148 0.0 0.0 0.00 0.00 0.00 93 1019.3
20260507045329 11 148 0.0 0.0 0.00 0.00 0.00 93 1019.3
20260507044830 11 148 0.0 0.0 0.00 0.00 0.00 93 1019.4
20260507044328 11 148 0.0 0.0 0.00 0.00 0.00 93 1019.2
20260507043829 11 148 0.0 0.0 0.00 0.00 0.00 93 1019.2
20260507043329 11 148 0.0 0.0 0.00 0.00 0.00 93 1019.2
20260507043143 11 148 0.0 0.0 0.00 0.00 0.00 93 1019.4
20260507042329 11 148 0.0 0.0 0.00 0.00 0.00 93 1019.2
20260507041829 11 148 0.0 0.0 0.00 0.00 0.00 92 1019.2
20260507041329 11 147 0.0 0.0 0.00 0.00 0.00 92 1019.2
20260507040830 11 148 0.0 0.0 0.00 0.00 0.00 92 1019.1
20260507040330 11 147 0.0 0.0 0.00 0.00 0.00 91 1019.0
20260507040139 11 147 0.0 0.0 0.00 0.00 0.00 91 1019.0
20260507035618 12 147 0.0 0.0 0.00 0.00 0.00 90 1019.3
20260507034831 12 147 0.0 0.0 0.00 0.00 0.00 90 1019.0
20260507034644 12 147 0.0 0.0 0.00 0.00 0.00 89 1018.8
20260507033834 12 147 0.0 0.0 0.00 0.00 0.00 89 1019.0
20260507033353 12 147 0.0 0.0 0.00 0.00 0.00 89 1019.0
20260507032329 12 147 0.0 0.0 0.00 0.00 0.00 88 1019.0
20260507032113 12 160 0.0 0.0 0.00 0.00 0.00 87 1018.8
20260507031420 12 160 0.0 0.0 0.00 0.00 0.00 87 1018.9
20260507031403 12 160 0.0 0.0 0.00 0.00 0.00 87 1018.9
20260507030329 12 155 0.0 0.0 0.00 0.00 0.00 87 1019.0
20260507030134 12 155 0.0 0.0 0.00 0.00 0.00 86 1019.0
20260507025329 12 155 0.0 0.0 0.00 0.00 0.00 86 1018.7
20260507024917 12 155 0.0 0.0 0.00 0.00 0.00 85 1019.1
20260507024901 12 155 0.0 0.0 0.00 0.00 0.00 86 1018.9
20260507023829 13 154 0.0 0.0 0.00 0.00 0.00 86 1018.7
20260507023329 12 155 0.0 0.0 0.00 0.00 0.00 85 1018.7
20260507022830 13 155 0.0 0.0 0.00 0.00 0.00 85 1018.9
20260507022329 13 155 0.0 0.0 0.00 0.00 0.00 85 1018.8
20260507021829 13 155 0.0 0.0 0.00 0.00 0.00 85 1019.0
20260507021328 13 145 0.0 0.0 0.00 0.00 0.00 85 1018.9
20260507020829 13 154 0.0 0.0 0.00 0.00 0.00 84 1018.9
20260507020329 13 140 0.0 0.0 0.00 0.00 0.00 84 1018.7
20260507015829 13 146 0.0 0.0 0.00 0.00 0.00 84 1018.7
20260507015329 13 144 0.0 0.0 0.00 0.00 0.00 83 1018.7
20260507014829 13 143 0.0 0.0 0.00 0.00 0.00 83 1018.6
20260507014329 13 151 0.0 0.0 0.00 0.00 0.00 83 1018.6
20260507013831 13 142 0.0 0.0 0.00 0.00 0.00 83 1018.7
20260507013618 13 147 0.0 0.0 0.00 0.00 0.00 83 1018.7
20260507012828 13 143 0.0 0.0 0.00 0.00 0.00 82 1018.8
20260507012329 13 148 0.0 0.0 0.00 0.00 0.00 81 1018.7
20260507011828 13 156 0.0 0.0 0.00 0.00 0.00 80 1018.8
20260507011329 13 147 0.0 0.0 0.00 0.00 0.00 80 1018.8
20260507010828 13 137 0.0 0.0 0.00 0.00 0.00 80 1018.8
20260507010329 13 139 0.0 0.0 0.00 0.00 0.00 79 1018.6
20260507005830 13 143 0.0 0.0 0.00 0.00 0.00 79 1019.0
20260507005330 13 145 0.0 0.0 0.00 0.00 0.00 80 1018.8
20260507004829 13 145 0.0 0.0 0.00 0.00 0.00 79 1019.0
20260507004618 13 144 0.0 0.0 0.00 0.00 0.00 79 1018.8
20260507003830 13 161 0.0 0.0 0.00 0.00 0.00 79 1018.7
20260507003329 13 140 0.0 0.0 0.00 0.00 0.00 79 1018.7
20260507003115 13 144 0.0 0.0 0.00 0.00 0.00 78 1018.7
20260507002632 13 161 0.0 0.0 0.00 0.00 0.00 78 1019.0
20260507001829 13 144 0.0 0.0 0.00 0.00 0.00 78 1018.7
20260507001618 13 136 0.0 0.0 0.00 0.00 0.00 77 1018.6
20260507000829 13 145 0.0 0.0 0.00 0.00 0.00 79 1018.8
20260507000329 13 143 0.0 0.0 0.00 0.00 0.00 79 1018.5
20260506235829 13 153 0.0 0.0 0.00 0.00 0.00 78 1018.7
20260506235329 13 146 0.0 0.0 0.00 0.00 0.00 77 1018.8
20260506234832 13 140 0.0 0.0 0.00 0.00 0.00 77 1018.7
20260506234330 13 150 0.0 0.0 0.00 0.00 0.00 77 1018.6
20260506233829 13 135 0.0 0.0 0.00 0.00 0.00 77 1018.7
20260506233330 13 143 0.0 0.0 0.00 0.00 0.00 76 1018.8
20260506232931 13 144 0.0 0.0 0.00 0.00 0.00 76 1018.7
20260506232654 13 134 0.0 0.0 0.00 0.00 0.00 76 1018.7
20260506231430 13 157 0.0 0.0 0.00 0.00 0.00 76 1018.7
20260506231401 13 162 0.0 0.0 0.00 0.00 0.00 76 1018.8
20260506230330 13 141 0.0 0.0 0.00 0.00 0.00 76 1018.8
20260506225830 13 151 0.0 0.0 0.00 0.00 0.00 76 1018.6
20260506225330 13 163 0.0 0.0 0.00 0.00 0.00 76 1018.8
20260506225123 13 136 0.0 0.0 0.00 0.00 0.00 75 1018.8
20260506224428 13 119 0.0 0.0 0.00 0.00 0.00 75 1018.6
20260506224401 13 152 0.0 0.0 0.00 0.00 0.00 75 1018.8
20260506223333 13 148 0.0 0.0 0.00 0.00 0.00 75 1018.7
20260506222828 13 153 0.0 0.0 0.00 0.00 0.00 75 1018.9
20260506222328 13 148 0.0 0.0 0.00 0.00 0.00 75 1018.9
20260506221829 13 140 0.0 0.0 0.00 0.00 0.00 75 1019.0
20260506221330 13 138 0.0 0.0 0.00 0.00 0.00 75 1018.9
20260506220830 13 149 0.0 0.0 0.00 0.00 0.00 76 1018.8
20260506220330 13 168 0.0 0.0 0.00 0.00 0.00 76 1018.9
20260506215830 13 143 0.0 0.0 0.00 0.00 0.00 77 1019.1
20260506215619 13 143 0.0 0.0 0.00 0.00 0.00 77 1018.9
20260506214829 13 154 0.0 0.0 0.00 0.00 0.00 76 1019.1
20260506214329 13 142 0.0 0.0 0.00 0.00 0.00 76 1018.9
20260506213829 13 155 0.0 0.0 0.00 0.00 0.00 79 1019.1
20260506213617 13 147 0.0 0.0 0.00 0.00 0.00 79 1019.1
20260506212829 13 142 0.0 0.0 0.00 0.00 0.00 78 1019.0
20260506212330 13 148 0.0 0.0 0.00 0.00 0.00 79 1019.2
20260506211829 13 147 0.0 0.0 0.00 0.00 0.00 79 1019.0
20260506211329 13 142 0.0 0.0 0.00 0.00 0.00 78 1019.0
20260506211114 13 148 0.0 0.0 0.00 0.00 0.00 80 1019.3
20260506210330 13 169 0.0 0.0 0.00 0.00 0.00 79 1019.2
20260506205829 13 138 0.0 0.0 0.00 0.00 0.00 81 1019.2
20260506205331 13 130 0.0 0.0 0.00 0.00 0.00 82 1018.9
20260506204823 13 140 0.0 0.0 0.00 0.00 0.00 81 1019.1
20260506204612 13 143 0.0 0.0 0.00 0.00 0.00 82 1019.0
20260506203819 13 146 0.0 0.0 0.00 0.00 0.00 82 1019.0
20260506203318 13 149 0.0 0.0 0.00 0.00 0.00 82 1018.9
20260506202818 13 159 0.0 0.0 0.00 0.00 0.00 83 1018.9
20260506202319 13 140 0.0 0.0 0.00 0.00 0.00 84 1019.0
20260506201818 13 144 0.0 0.0 0.00 0.00 0.00 83 1018.9
20260506201318 13 140 0.0 0.0 0.00 0.00 0.00 83 1019.1
20260506201108 13 140 0.0 0.0 0.00 0.00 0.00 84 1019.0
20260506200319 12 147 0.0 0.0 0.00 0.00 0.00 85 1019.0
20260506195818 12 142 0.0 0.0 0.00 0.00 0.00 86 1019.0
20260506195317 12 145 0.0 0.0 0.00 0.00 0.00 87 1019.1
20260506195110 12 144 0.0 0.0 0.00 0.00 0.00 88 1018.9
20260506194413 12 143 0.0 0.0 0.00 0.00 0.00 88 1018.8
20260506193318 12 140 0.0 0.0 0.00 0.00 0.00 89 1018.8
20260506192818 12 156 0.0 0.0 0.00 0.00 0.00 91 1018.7
20260506192319 12 151 0.0 0.0 0.00 0.00 0.00 91 1019.0
20260506191906 12 152 0.0 0.0 0.00 0.00 0.00 91 1018.9
20260506191848 12 150 0.0 0.0 0.00 0.00 0.00 91 1019.0
20260506190818 12 158 0.0 0.0 0.00 0.00 0.00 91 1018.8
20260506190646 12 147 0.0 0.0 0.00 0.00 0.00 90 1018.7
20260506185818 12 138 0.0 0.0 0.00 0.00 0.00 90 1018.9
20260506185319 12 138 0.0 0.0 0.00 0.00 0.00 90 1018.6
20260506185112 12 166 0.0 0.0 0.00 0.00 0.00 90 1018.6
20260506184319 12 156 0.0 0.0 0.00 0.00 0.00 91 1018.7
20260506183923 12 156 0.0 0.0 0.00 0.00 0.00 92 1018.6
20260506183901 12 156 0.0 0.0 0.00 0.00 0.00 91 1018.9
20260506182818 12 142 0.0 0.0 0.00 0.00 0.00 92 1018.6
20260506182319 12 152 0.0 0.0 0.00 0.00 0.00 93 1018.4
20260506181817 12 148 0.0 0.0 0.00 0.00 0.00 93 1018.6
20260506181317 12 146 0.0 0.0 0.00 0.00 0.00 93 1018.4
20260506181109 12 142 0.0 0.0 0.00 0.00 0.00 93 1018.8
20260506180318 12 141 0.0 0.0 0.00 0.00 0.00 92 1018.8
20260506180122 12 157 0.0 0.0 0.00 0.00 0.00 92 1018.7
20260506175318 12 144 0.0 0.0 0.00 0.00 0.00 91 1018.6
20260506174819 12 157 0.0 0.0 0.00 0.00 0.00 91 1018.4
20260506174319 12 145 0.0 0.0 0.00 0.00 0.00 91 1018.1
20260506173817 12 143 0.0 0.0 0.00 0.00 0.00 90 1018.3
20260506173319 12 150 0.0 0.0 0.00 0.00 0.00 88 1018.3
20260506172820 12 143 0.0 0.0 0.00 0.00 0.00 88 1018.2
20260506172318 12 146 0.0 0.0 0.00 0.00 0.00 88 1018.5
20260506171817 12 134 0.0 0.0 0.00 0.00 0.00 88 1018.4
20260506171317 12 153 0.0 0.0 0.00 0.00 0.00 89 1018.6
20260506170818 12 160 0.0 0.0 0.00 0.00 0.00 89 1018.4
20260506170323 12 165 0.0 0.0 0.00 0.00 0.00 89 1018.4
20260506165821 12 160 0.0 0.0 0.00 0.00 0.00 89 1018.5
20260506165318 12 154 0.0 0.0 0.00 0.00 0.00 89 1018.4
20260506164818 12 159 0.0 0.0 0.00 0.00 0.00 89 1018.6
20260506164319 12 159 0.0 0.0 0.00 0.00 0.00 89 1018.3
20260506163818 12 150 0.0 0.0 0.00 0.00 0.00 89 1018.4
20260506163319 12 143 0.0 0.0 0.00 0.00 0.00 89 1018.3
20260506162817 12 151 0.0 0.0 0.00 0.00 0.00 89 1018.3
20260506162607 12 163 0.0 0.0 0.00 0.00 0.00 90 1018.3
20260506161818 12 168 0.0 0.0 0.00 0.00 0.00 90 1018.0
20260506161612 12 158 0.0 0.0 0.00 0.00 0.00 90 1018.0
20260506160817 12 143 0.0 0.0 0.00 0.00 0.00 90 1018.1
20260506160318 12 148 0.0 0.0 0.00 0.00 0.00 91 1017.8
20260506155818 12 141 0.0 0.0 0.00 0.00 0.00 91 1017.9
20260506155319 12 130 0.0 0.0 0.00 0.00 0.00 92 1017.6
20260506154818 12 143 0.0 0.0 0.00 0.00 0.00 92 1017.6
20260506154318 12 141 0.0 0.0 0.00 0.00 0.00 92 1017.8
20260506153817 12 153 0.0 0.0 0.00 0.00 0.00 92 1017.8
20260506153315 12 151 0.0 0.0 0.00 0.00 0.00 92 1018.0
20260506153108 12 151 0.0 0.0 0.00 0.00 0.00 93 1018.1
20260506152604 11 139 0.0 0.0 0.00 0.00 0.00 93 1018.0
20260506151809 11 141 0.0 0.0 0.00 0.00 0.00 94 1018.0
20260506151604 11 141 0.0 0.0 0.00 0.00 0.00 94 1018.2
20260506150810 11 142 0.0 0.0 0.00 0.00 0.00 95 1018.2
20260506150310 11 142 0.0 0.0 0.00 0.00 0.00 95 1018.1
20260506145810 11 142 0.0 0.0 0.00 0.00 0.00 95 1017.8
20260506145559 11 141 0.0 0.0 0.00 0.00 0.00 95 1017.9
20260506144810 11 142 0.0 0.0 0.00 0.00 0.00 95 1017.6
20260506144311 11 142 0.0 0.0 0.00 0.00 0.00 95 1017.6
20260506143809 11 139 0.0 0.0 0.00 0.00 0.00 95 1018.0
20260506143309 11 139 0.0 0.0 0.00 0.00 0.00 95 1017.9
20260506142811 11 139 0.0 0.0 0.00 0.00 0.00 95 1017.9
20260506142310 11 139 0.0 0.0 0.00 0.00 0.00 95 1017.8
20260506141811 11 139 0.0 0.0 0.00 0.00 0.00 95 1017.7
20260506141310 11 139 0.0 0.0 0.00 0.00 0.00 95 1017.6
20260506140809 11 139 0.0 0.0 0.00 0.00 0.00 95 1017.6
20260506140312 11 139 0.0 0.0 0.00 0.00 0.00 95 1017.7
20260506140119 11 139 0.0 0.0 0.00 0.00 0.00 95 1017.7
20260506135607 11 138 0.0 0.0 0.00 0.00 0.00 95 1017.6
20260506134809 11 138 0.0 0.0 0.00 0.00 0.00 94 1017.7
20260506134310 11 143 0.0 0.0 0.00 0.00 0.00 93 1017.7
20260506133808 11 144 0.0 0.0 0.00 0.00 0.00 93 1017.8
20260506133312 11 144 0.0 0.0 0.00 0.00 0.00 93 1017.7
20260506132809 11 144 0.0 0.0 0.00 0.00 0.00 92 1017.5
20260506132607 11 144 0.0 0.0 0.00 0.00 0.00 92 1017.5
20260506131810 11 145 0.0 0.0 0.00 0.00 0.00 92 1017.5
20260506131616 11 145 0.0 0.0 0.00 0.00 0.00 92 1017.7
20260506130810 11 145 0.0 0.0 0.00 0.00 0.00 92 1017.3
20260506130314 11 145 0.0 0.0 0.00 0.00 0.00 93 1017.1
20260506130156 11 144 0.0 0.0 0.00 0.00 0.00 94 1017.2
20260506125309 11 144 0.0 0.0 0.00 0.00 0.00 93 1017.1
20260506124811 11 144 0.0 0.0 0.00 0.00 0.00 93 1017.0
20260506124309 11 144 0.0 0.0 0.00 0.00 0.00 93 1017.2
20260506123810 11 144 0.0 0.0 0.00 0.00 0.00 92 1017.0
20260506123605 11 146 0.0 0.0 0.00 0.00 0.00 93 1017.2
20260506122808 11 146 0.0 0.0 0.00 0.00 0.00 92 1017.2
20260506122310 11 146 0.0 0.0 0.00 0.00 0.00 93 1016.8
20260506121808 11 146 0.0 0.0 0.00 0.00 0.00 93 1016.9
20260506121559 11 146 0.0 0.0 0.00 0.00 0.00 93 1016.6
20260506120808 11 146 0.0 0.0 0.00 0.00 0.00 92 1016.9
20260506120309 11 146 0.0 0.0 0.00 0.00 0.00 93 1017.0
20260506115809 11 146 0.0 0.0 0.00 0.00 0.00 92 1016.7
20260506115309 11 146 0.0 0.0 0.00 0.00 0.00 92 1016.7
20260506114808 11 146 0.0 0.0 0.00 0.00 0.00 92 1017.0
20260506114308 11 145 0.0 0.0 0.00 0.00 0.00 93 1016.7
20260506114057 11 146 0.0 0.0 0.00 0.00 0.00 94 1016.9
20260506113309 11 149 0.0 0.0 0.00 0.00 0.00 95 1016.7
20260506113102 11 146 0.0 0.0 0.00 0.00 0.00 96 1016.6
20260506112308 11 146 0.0 0.0 0.00 0.00 0.00 97 1016.6
20260506111808 11 142 0.0 0.0 0.00 0.00 0.00 98 1016.6
20260506111309 11 142 0.0 0.0 0.00 0.00 0.00 98 1016.7
20260506110807 11 144 0.0 0.0 0.00 0.00 0.00 99 1016.4
20260506110309 11 143 0.0 0.0 0.00 0.00 0.00 99 1016.3
20260506105813 11 143 0.0 0.0 0.00 0.00 0.00 99 1016.4
20260506105310 11 143 0.0 0.0 0.00 0.00 0.00 99 1016.6
20260506104809 10 143 0.0 0.0 0.00 0.00 0.00 99 1016.4
20260506104309 10 143 0.0 0.0 0.00 0.00 0.00 99 1016.2
20260506103807 10 143 0.0 0.0 0.00 0.00 0.00 99 1016.3
20260506103308 10 143 0.0 0.0 0.00 0.00 0.00 99 1016.2
20260506103057 10 142 0.0 0.0 0.00 0.00 0.00 99 1016.3
20260506102308 10 142 0.0 0.0 0.00 0.00 0.00 99 1016.3
20260506102052 10 142 0.0 0.0 0.00 0.00 0.00 99 1016.3
20260506101554 10 143 0.0 0.0 0.00 0.00 0.00 99 1016.4
20260506100808 10 144 0.0 0.0 0.00 0.00 0.00 99 1016.0
20260506100309 10 144 0.0 0.0 0.00 0.00 0.00 99 1016.0
20260506095807 10 143 0.0 0.0 0.00 0.00 0.00 99 1016.0
20260506095309 10 144 0.0 0.0 0.00 0.00 0.00 99 1016.1
20260506094809 10 144 0.0 0.0 0.00 0.00 0.00 99 1015.8
20260506094309 9 144 0.0 0.0 0.00 0.00 0.00 99 1016.0
20260506093809 9 144 0.0 0.0 0.00 0.00 0.00 99 1015.8
20260506093309 9 143 0.0 0.0 0.00 0.00 0.00 99 1015.9
20260506093112 10 143 0.0 0.0 0.00 0.00 0.00 99 1015.9
20260506092309 10 143 0.0 0.0 0.00 0.00 0.00 99 1015.9
20260506091810 10 144 0.0 0.0 0.00 0.00 0.00 99 1015.8
20260506091557 10 144 0.0 0.0 0.00 0.00 0.00 99 1015.9
20260506090807 10 144 0.0 0.0 0.00 0.00 0.00 99 1015.9
20260506090308 10 144 0.0 0.0 0.00 0.00 0.00 99 1016.0
20260506085808 10 144 0.0 0.0 0.00 0.00 0.00 99 1015.8
20260506085559 10 143 0.0 0.0 0.00 0.00 0.00 99 1015.8
20260506084808 10 143 0.0 0.0 0.00 0.00 0.00 99 1015.6
20260506084337 10 143 0.0 0.0 0.00 0.00 0.00 99 1015.7
20260506083345 10 144 0.0 0.0 0.00 0.00 0.00 99 1015.4
20260506082308 10 144 0.0 0.0 0.00 0.00 0.00 99 1015.4
20260506081808 10 144 0.0 0.0 0.00 0.00 0.00 98 1015.2
20260506081309 11 144 0.0 0.0 0.00 0.00 0.00 99 1015.2
20260506080808 11 144 0.0 0.0 0.00 0.00 0.00 98 1015.2
20260506080339 11 144 0.0 0.0 0.00 0.00 0.00 98 1015.2
20260506073307 11 144 0.0 0.0 0.00 0.00 0.00 98 1015.1
20260506072808 11 144 0.0 0.0 0.00 0.00 0.00 98 1015.2
20260506072307 11 144 0.0 0.0 0.00 0.00 0.00 98 1015.1
20260506071808 11 144 0.0 0.0 0.00 0.00 0.00 98 1015.0
20260506071309 11 144 0.0 0.0 0.00 0.00 0.00 98 1015.0
20260506071059 11 144 0.0 0.0 0.00 0.00 0.00 97 1014.9
20260506070308 11 144 0.0 0.0 0.00 0.00 0.00 97 1014.8
20260506062308 11 144 0.0 0.0 0.00 0.00 0.00 96 1014.9
20260506061810 11 144 0.0 0.0 0.00 0.00 0.00 96 1014.8
20260506061309 11 144 0.0 0.0 0.00 0.00 0.00 96 1014.4
20260506060808 11 144 0.0 0.0 0.00 0.00 0.00 96 1014.5
20260506060307 11 144 0.0 0.0 0.00 0.00 0.00 96 1014.6